DW8626 Madrid ES current weather conditions

sailwx.info

Wind from 352 at 3 knots gusting 6

Air temperature 25.6° C
Dewpoint 5.2° C

Last reported at 2015-Mar-31 14:31 UTC.
Time now 2015-Mar-31 15:33 UTC

Location: N 40°29' W 003°43'.
View on Google Maps.

See reports from other nearby stations

  
Tides and Currents Weather Stations Pressure Air Temp Water Temp Dewpoint Dewpoint Depression Visibility Wind Speed Wind Dir Waves Ship Positions
date/time (UTC)wind fromknots sea level pressurealtimeterstation pressurevisibilityair tempwater tempwave heightnotes
2015-Mar-31 14:31 352 3 gusting 6 25.6
2015-Mar-31 14:16 045 0 gusting 7 25.0
2015-Mar-31 14:02 288 26.1
2015-Mar-31 13:47 006 1 gusting 6 25.0
2015-Mar-31 13:32 336 0 gusting 1 25.6
2015-Mar-31 13:16 252 0 gusting 2 25.6
2015-Mar-31 13:01 019 0 gusting 1 26.1
2015-Mar-31 12:47 010 0 gusting 2 25.6
2015-Mar-31 12:31 285 0 gusting 1 24.4
2015-Mar-31 12:16 169 0 gusting 5 24.4
2015-Mar-31 12:01 160 24.4
2015-Mar-31 11:46 129 1 gusting 3 25.0
2015-Mar-31 11:32 125 0 gusting 3 23.9
2015-Mar-31 11:16 131 0 gusting 3 23.3
2015-Mar-31 11:02 172 1 gusting 4 22.8
2015-Mar-31 10:46 135 1 gusting 5 22.8
2015-Mar-31 10:32 205 1 gusting 3 23.3
2015-Mar-31 10:17 273 22.8
2015-Mar-31 09:46 148 22.8
2015-Mar-31 09:31 120 22.2
2015-Mar-31 09:16 158 0 gusting 1 21.1
2015-Mar-31 09:01 134 20.0
2015-Mar-31 08:46 129 19.4
2015-Mar-31 08:31 101 20.0
2015-Mar-31 08:16 139 18.9
2015-Mar-31 08:02 075 17.8
2015-Mar-31 07:48 355 15.0
2015-Mar-31 07:32 009 13.9
2015-Mar-31 07:17 016 13.9
2015-Mar-31 07:02 163 15.0
2015-Mar-31 06:47 163 13.9
2015-Mar-31 06:32 146 13.9
2015-Mar-31 06:17 006 13.3
2015-Mar-31 06:03 005 13.9
2015-Mar-31 05:47 008 14.4
2015-Mar-31 05:32 100 14.4
2015-Mar-31 05:18 345 13.9
2015-Mar-31 05:02 105 14.4
2015-Mar-31 04:47 108 14.4
2015-Mar-31 04:32 340 14.4
2015-Mar-31 04:16 099 15.0
2015-Mar-31 04:02 108 15.6
2015-Mar-31 03:47 094 15.6
2015-Mar-31 03:32 110 15.6
2015-Mar-31 03:17 072 15.6
2015-Mar-31 03:02 060 15.0
2015-Mar-31 02:48 314 15.0
2015-Mar-31 02:32 314 15.6
2015-Mar-31 02:17 313 15.0
2015-Mar-31 02:01 134 16.1
2015-Mar-31 01:46 107 16.1
2015-Mar-31 01:32 026 0 gusting 1 15.0
2015-Mar-31 01:17 293 15.0
2015-Mar-31 01:02 249 15.6
2015-Mar-31 00:47 249 16.7
2015-Mar-31 00:32 154 16.1
2015-Mar-31 00:19 134 16.7
2015-Mar-31 00:02 131 16.1
2015-Mar-30 23:47 108 15.6
2015-Mar-30 23:32 107 16.1
2015-Mar-30 23:17 255 16.1
2015-Mar-30 23:02 108 16.7
2015-Mar-30 22:46 194 17.2
2015-Mar-30 22:32 194 17.8
2015-Mar-30 22:17 236 18.3
2015-Mar-30 21:49 264 18.9
2015-Mar-30 21:32 144 18.9
2015-Mar-30 21:17 084 19.4
2015-Mar-30 21:02 150 19.4
2015-Mar-30 20:47 249 19.4
2015-Mar-30 20:32 162 19.4
2015-Mar-30 20:17 231 20.0
2015-Mar-30 20:02 342 21.1
2015-Mar-30 19:47 342 0 gusting 0 20.6
2015-Mar-30 19:19 342 21.7
2015-Mar-30 19:02 025 3 gusting 4 22.2
2015-Mar-30 18:47 043 2 gusting 4 22.8
2015-Mar-30 18:32 358 23.3
2015-Mar-30 18:17 070 1 gusting 5 23.3
2015-Mar-30 18:02 046 5 gusting 8 23.9
2015-Mar-30 17:46 015 4 gusting 8 23.9
2015-Mar-30 17:32 047 6 gusting 8 23.9
2015-Mar-30 17:16 040 7 gusting 11 24.4
2015-Mar-30 17:02 089 24.4
2015-Mar-30 16:49 070 24.4
2015-Mar-30 16:31 045 1 gusting 5 25.0
2015-Mar-30 16:16 090 1 gusting 11 25.0
2015-Mar-30 16:02 107 3 gusting 10 25.0
2015-Mar-30 15:47 341 25.6
2015-Mar-30 15:32 051 2 gusting 6 25.6
2015-Mar-30 15:17 151 26.7
2015-Mar-30 15:02 148 26.1
2015-Mar-30 14:47 071 0 gusting 1 25.6
2015-Mar-30 14:32 115 1 gusting 2 25.0
2015-Mar-30 14:18 045 24.4
2015-Mar-30 14:01 014 0 gusting 6 25.0
2015-Mar-30 13:46 058 0 gusting 4 25.0
2015-Mar-30 13:32 285 4 gusting 7 24.4
2015-Mar-30 13:16 166 0 gusting 6 24.4
2015-Mar-30 13:02 336 2 gusting 5 25.0
2015-Mar-30 12:47 066 0 gusting 4 23.9
2015-Mar-30 12:31 342 3 gusting 6 23.3
2015-Mar-30 12:16 007 0 gusting 9 23.3
2015-Mar-30 12:01 204 2 gusting 4 23.3
2015-Mar-30 11:48 285 22.8
2015-Mar-30 11:31 277 0 gusting 4 22.2
2015-Mar-30 11:17 298 0 gusting 5 22.2
2015-Mar-30 11:01 166 1 gusting 4 22.2
2015-Mar-30 10:47 250 22.2
2015-Mar-30 10:31 146 1 gusting 5 21.7
2015-Mar-30 10:16 133 1 gusting 3 21.7
2015-Mar-30 10:01 143 0 gusting 2 21.1
2015-Mar-30 09:46 204 21.1
2015-Mar-30 09:33 131 0 gusting 2 20.6
2015-Mar-30 09:18 134 20.0
2015-Mar-30 09:02 146 19.4
2015-Mar-30 08:47 141 18.3
2015-Mar-30 08:32 259 17.2
2015-Mar-30 08:16 259 17.2
2015-Mar-30 08:02 146 17.2
2015-Mar-30 07:46 162 15.0
2015-Mar-30 07:32 222 14.4
2015-Mar-30 07:17 233 13.9
2015-Mar-30 07:02 001 13.3
2015-Mar-30 06:32 353 12.8
2015-Mar-30 06:17 323 12.8
2015-Mar-30 06:02 342 0 gusting 6 13.3
2015-Mar-30 05:47 232 1 gusting 6 13.3
2015-Mar-30 05:32 285 0 gusting 7 13.3
2015-Mar-30 05:17 291 3 gusting 7 13.3
2015-Mar-30 05:02 273 4 gusting 11 13.3
2015-Mar-30 04:47 269 1 gusting 6 13.3
2015-Mar-30 04:32 250 4 gusting 5 13.3
2015-Mar-30 04:18 224 13.9
2015-Mar-30 04:02 164 2 gusting 9 13.9
2015-Mar-30 03:47 264 0 gusting 7 13.9
2015-Mar-30 03:16 264 13.9
2015-Mar-30 03:02 253 0 gusting 5 13.9
2015-Mar-30 02:47 304 4 gusting 7 13.9
2015-Mar-30 02:31 167 13.9
2015-Mar-30 02:16 229 13.9
2015-Mar-30 02:02 187 13.9
2015-Mar-30 01:49 212 13.9
2015-Mar-30 01:32 275 0 gusting 4 14.4
2015-Mar-30 01:16 260 14.4
2015-Mar-30 01:02 211 15.0
2015-Mar-30 00:47 228 2 gusting 5 14.4
2015-Mar-30 00:32 253 14.4
2015-Mar-30 00:16 312 14.4
2015-Mar-30 00:01 226 14.4
2015-Mar-29 23:47 319 13.9
2015-Mar-29 23:32 226 14.4
2015-Mar-29 23:02 297 14.4
2015-Mar-29 22:47 280 15.0
2015-Mar-29 22:32 127 16.1
2015-Mar-29 22:16 104 16.7
2015-Mar-29 22:01 081 16.7
2015-Mar-29 21:47 084 17.2
2015-Mar-29 21:32 045 16.7
2015-Mar-29 21:17 131 16.7
2015-Mar-29 21:02 143 16.7
2015-Mar-29 20:48 152 17.2
2015-Mar-29 20:32 167 17.2
2015-Mar-29 20:17 248 17.8
2015-Mar-29 20:02 288 17.2
2015-Mar-29 19:47 289 17.8
2015-Mar-29 19:32 308 17.8
2015-Mar-29 19:17 307 17.8
2015-Mar-29 19:02 281 18.3
2015-Mar-29 18:47 329 18.3
2015-Mar-29 18:19 275 2 gusting 2 18.9
2015-Mar-29 18:02 304 2 gusting 5 19.4
2015-Mar-29 17:32 316 20.6
2015-Mar-29 17:17 028 0 gusting 8 20.6
2015-Mar-29 17:02 277 6 gusting 7 21.1
2015-Mar-29 16:47 315 1 gusting 8 21.1
2015-Mar-29 15:33 337 21.7
2015-Mar-29 15:18 267 1 gusting 6 22.2
2015-Mar-29 15:02 305 0 gusting 10 21.1